STARLINK-11079 (58708 NORAD) Tracking and Keplerian Element Data

This shows tracking and keplerian element data for the satellite.

Feedback or suggestion? Click here.




ElementValue
Catalog58708
NameSTARLINK-11079
Epoch Orbit276
Epoch Day13.25002315
Epoch Year2024
RAAN198.233
Inclination53.1673
Eccentricity0.0001095
Argument of Perigee95.7818
Mean Anonmoly56.4792
Mean Motion15.69691926
Decay Rate0.00182027
L11 58708U 24002D 24013.25002315 .00182027 00000+0 14757-2 0 9999
L22 58708 53.1673 198.2330 0001095 95.7818 56.4792 15.69691926 2766



Live tracking and technical data element details for STARLINK-11079 (NORAD 58708). STARLINK-11079 can be tracked NOW for your location showing map with azimuth and elevation plus other details from your city location.







IsCatalogInMostPopularTable: catalog: 58708, numindb: 32
Update: records affected: 1



GetName: 58708 STARLINK-11079

Hit Count: updated at: Wed, 17 Apr 2024 02:33:24 GMT